Regional Weather Roundup
Issued by NWS Charleston, SC

Current Version | Previous Version | Graphics & Text | Print | Product List | Glossary On
Versions: 1 2 3 4 5 6 7 8 9 10 11 12 13 14 15 16 17 18 19 20 21 22 23 24 25 26 27 28 29 30 31 32 33 34 35 36 37 38 39 40 41 42 43 44 45 46 47 48 49 50
000
ASUS42 KCHS 251625
RWRCHS

REGIONAL WEATHER ROUNDUP
NATIONAL WEATHER SERVICE CHARLESTON SC
1100 AM EST SUN JAN 25 2015

NOTE: "FAIR" INDICATES FEW OR NO CLOUDS BELOW 12,000 FEET WITH NO
SIGNIFICANT WEATHER AND/OR OBSTRUCTIONS TO VISIBILITY.

NOT ALL STATIONS ARE QUALITY CONTROLLED BY THE NATIONAL
WEATHER SERVICE. USE DATA WITH CAUTION...ESPECIALLY
DEWPOINT OBSERVATIONS.

SCZ027-030-031-034>040-042>050-251700-
...SOUTHEAST SOUTH CAROLINA...

CITY           SKY/WX    TMP DP  RH WIND       PRES   REMARKS
N CHARLESTON   MOSUNNY   46  33  60 W5        30.02S
WATERFRONT PRK   N/A     52 N/A N/A NW3         N/A
MOUNT PLEASANT LGT RAIN N/A N/A N/A CALM      30.01S
PINOPOLIS      NOT AVBL
MONCKS CORNER  FAIR      50  36  57 CALM      30.01S
SUMMERVILLE    FAIR      48  36  61 CALM      30.02F
BEAUFORT MCAS  MOSUNNY   52  34  50 VRB3      30.03R
BEAUFORT ARPT  FAIR      50  36  57 NW3       30.02F
HILTON HEAD IS SUNNY     50  36  57 SW5       30.04R
WALTERBORO     SUNNY     50  32  50 N3        30.02S
ALLENDALE      FAIR      50  34  53 CALM      30.00F

...SOUTHERN MIDLANDS AND PEE DEE...

CITY           SKY/WX    TMP DP  RH WIND       PRES   REMARKS
GEORGETOWN     NOT AVBL
KINGSTREE      NOT AVBL
ORANGEBURG     SUNNY     48  32  53 SW3       30.00S
BARNWELL       FAIR      52  34  50 CALM      29.99F
AIKEN          FAIR      50  32  50 W5        29.99F
MANNING        NOT AVBL
COLUMBIA       MOSUNNY   48  33  56 CALM      29.98S
SUMTER         SUNNY     49  31  51 S6        29.97S
FLORENCE       SUNNY     50  35  56 SE6       29.98S
MYRTLE BEACH   SUNNY     50  34  53 CALM      30.03S
N MYRTLE BEACH SUNNY     48  34  58 VRB3      30.00S

$$

GAZ063-065-086>088-099>101-113>116-118-119-134>141-150-251700-
...SOUTHEAST GEORGIA...

CITY           SKY/WX    TMP DP  RH WIND       PRES   REMARKS
SAVANNAH ARPT  MOSUNNY   52  33  48 NW6       30.03S
HUNTER AAF     SUNNY     52  35  52 VRB5      30.02S
FORT STEWART   SUNNY     51  35  53 VRB6      30.03S
STATESBORO     SUNNY     53  35  50 W8        30.01F
SYLVANIA       SUNNY     53  37  55 W5        30.02S
CLAXTON        FAIR      52  37  58 W3        30.02F

...CSRA...CENTRAL AND FAR SOUTHEAST GEORGIA...

CITY           SKY/WX    TMP DP  RH WIND       PRES   REMARKS
THOMSON        SUNNY     53  37  54 S5        30.00F
AUGUSTA-BUSH   SUNNY     50  31  48 VRB5      29.99F
AUGUSTA-DANIEL SUNNY     51  31  46 W5        29.98F
SWAINSBORO     FAIR      54  25  32 CALM      30.01F
VIDALIA        SUNNY     54  36  50 W3        30.02F
EASTMAN        FAIR      53  36  52 SW6       30.04F
HAZLEHURST     FAIR      55  37  51 CALM      30.02F
ALMA           SUNNY     52  35  52 NW5       30.04F
WAYCROSS       SUNNY     56  38  49 NW6       30.05F
JESUP          FAIR      55  37  50 NW6       30.04F
BAXLEY         FAIR      54  34  47 W6        30.03F
BRUNSWICK      SUNNY     54  34  47 W6        30.05F
SAINT SIMONS   SUNNY     53  33  46 W8        30.06S

$$

SCZ027-028-034-036>038-045-046-048>050-GAZ119-141-251700-
...LAKE AND SUPPLEMENTAL COASTAL OBSERVATIONS...

STATION/POSITION TIME  TEMP    WIND        PRES    WAVE   SWELL
                       AIR SEA DIR/SP/G            HT/PER HT/PER/DIR
                 (UTC) (F)     (DEG/KT/KT) (MB)    (FT/S) (FT/S/D)
UPR LAKE MARION  NOT AVBL
WINYAH BAY       1600   47     330/  3     1015.0S
LAKE MURRAY      1600   45     170/  5/  6 1014.6F
ACE BASIN NERRS  1600   51     320/  2     1016.0S
FORT PULASKI     1600   48 53  280/  6/  7 1017.4S
SAPELO ISLAND    1600   52     300/  4     1017.0S

$$

ANZ835-935-AMZ111-154-330-350-352-354-370-450-454-472-251700-
...C-MAN AND BUOY OBSERVATIONS...

STATION/POSITION TIME  TEMP    WIND        PRES    WAVE   SWELL
                       AIR SEA DIR/SP/G            HT/PER HT/PER/DIR
                 (UTC) (F)     (DEG/KT/KT) (MB)    (FT/S) (FT/S/D)
BUOY 41004       1600   52 69  330/  6/  8 1016.0R   4/ 6   3/ 6
BUOY 41008       1600   48 55  300/  8/  8 1017.3R   2/ 3
FOLLY BEACH CMAN 1600   51      20/  3/  4 1016.8R
CAPERS NEARSHORE 1500   48     360/  6/  8   N/A
FRIPP NEARSHORE  1500   47     300/  8/  8   N/A


STATION/POSITION TIME  TEMP    WIND        PRES    WAVE   SWELL
                       AIR SEA DIR/SP/G            HT/PER HT/PER/DIR
                 (UTC) (F)     (DEG/KT/KT) (MB)    (FT/S) (FT/S/D)
5E ST. MARYS GA  1600      58                N/A     1/10
FRYING PAN BUOY  1600   50 66  360/  6/ 10 1016.1F   5/ 8   5/200/ 8
BUOY 41025       1600   47 69  320/ 10/ 14 1015.6R   6/10   5/160/10
CAPE LOOKOUT NC  1600   47     360/  6/  8 1015.1F
BUOY 41002       1515   64 72  270/ 12/ 16 1015.7R   9/ 8   8/260/ 8
BUOY 41010       1600   65 76  320/  4/  8 1017.6R   5/ 8   5/320/ 8
ST AUGUSTINE FL  1600   52     280/  2/  3 1019.2F


$$



USA.gov is the U.S. government's official web portal to all federal, state and local government web resources and services.